Regional Weather Roundup
Issued by NWS Newport/Morehead, NC

Current Version | Previous Version | Graphics & Text | Print | Product List | Glossary On
Versions: 1 2 3 4 5 6 7 8 9 10 11 12 13 14 15 16 17 18 19 20 21 22 23 24 25 26 27 28 29 30 31 32 33 34 35 36 37 38 39 40 41 42 43 44 45 46 47 48 49 50
000 ASUS42 KMHX 211913 RWRMHX WEATHER ROUNDUP FOR EASTERN NORTH CAROLINA NATIONAL WEATHER SERVICE NEWPORT/MOREHEAD CITY NC 200 PM EST TUE FEB 21 2017 NOTE: "FAIR" INDICATES FEW OR NO CLOUDS BELOW 12,000 FEET WITH NO SIGNIFICANT WEATHER AND/OR OBSTRUCTIONS TO VISIBILITY NCZ015>017-031-032-045>047-102-103-212000- NORTH COAST CITY SKY/WX TMP DP RH WIND PRES REMARKS EDENTON MOSUNNY 60 45 56 E10 30.23F ELIZABETH CITY PTSUNNY 57 40 52 E12 30.24F KITTY HAWK NOT AVBL MANTEO CLOUDY 53 43 71 NE12 30.24F $$ NCZ045>047-081-094-103-104-212000- CENTRAL COAST CITY SKY/WX TMP DP RH WIND PRES REMARKS FRISCO CLOUDY 65 52 62 VRB6 30.20F $$ NCZ095-097-098-100-101-212000- SOUTHERN COAST CITY SKY/WX TMP DP RH WIND PRES REMARKS BEAUFORT MOSUNNY 67 51 56 NE9 30.18 CEDAR ISLAND NOT AVBL JACKSONVILLE CLOUDY 67 51 56 VRB5 30.17F PINEY ISLAND MOCLDY N/A N/A N/A NE16 30.19F WILMINGTON CLOUDY 65 51 60 E9 30.16F $$ NCZ011>013-027>030-043-044-078>080-089-090>093-098-212000- COASTAL PLAIN CITY SKY/WX TMP DP RH WIND PRES REMARKS AHOSKIE N/A 59 42 52 E5 30.22F CLINTON MOSUNNY 67 42 40 NE3 30.17F ELIZABETHTOWN MOSUNNY 68 39 34 E5 30.16F GOLDSBORO NOT AVBL GREENVILLE CLOUDY 64 46 52 S6 30.21F HAVELOCK MOSUNNY 61 49 64 NE10 30.20F KENANSVILLE NOT AVBL KINSTON CLOUDY 64 46 52 E5 30.19F NEW BERN CLOUDY 65 49 56 SE9 30.20F RICHLANDS MOSUNNY 67 50 54 SE9 30.17F ROCKY MOUNT PTSUNNY 62 40 44 CALM 30.19F WASHINGTON CLOUDY 64 47 54 CALM 30.20F WHITEVILLE CLOUDY 69 42 38 NE8 30.13F $$ AMZ130-135-150-152-154-156-158-170-250-252-270-ANZ085-086-088-633-658-670-212000- MARINE OBSERVATIONS STATION/POSITION TIME TEMP WIND PRES WAVE SWELL AIR SEA DIR/SP/G HT/PER HT/PER (UTC) (F) (DEG/KT/KT) (MB) (FT/S) (FT/S) CHESAPEAKE LIGHT NOT AVBL 64 E VA BEACH 1850 51 54 50/ 12/ 14 1024.0 4/ 6 3/ 6 DUCK 1842 49 48 30/ 11/ 12 1023.5 2 E DUCK 1900 50 N/A 4/ 7 OREGON INLET 1842 51 51 10/ 9/ 14 1023.4 13E OREGON INLT NOT AVBL HATTERAS CG 1842 55 58 20/ 13/ 14 1022.4 DIAMOND BUOY 1850 64 75 90/ 8/ 12 1022.2 5/ 9 5/ 9 CAPE LOOKOUT 1900 58 30/ 13/ 15 1021.7 BEAUFORT LAB 1842 63 53 50/ 8/ 10 1021.2 30 SE NEW RVR IN 1808 60 50/ 14/ 17 1022.0 30 SE NEW RVR IN 1843 68 N/A 4/10 27 SE WRIGHTSVLE 1808 60 63 50/ 14/ 17 1021.1 5 SE WRIGHTSVLE 1808 56 56 50/ 10/ 16 1022.1 225 S CAPE HAT 1850 64 71 70/ 12/ 16 1020.3 6/ 7 3/ 7 41 SE CHARLESTON 1850 70 69 100/ 17/ 17 1018.3 4/ 6 $$

USA.gov is the U.S. government's official web portal to all federal, state and local government web resources and services.